Christchurch Aero AWS, New Zealand

1:34 PM NZDT on December 11, 2016 (GMT +1300)
Christchurch International

Weather History for NZCH - April, 2013

Change the Weather History Date:

Tuesday, April 16, 2013

  Actual Average Record
Temperature  
Mean Temperature 53 °F -  
Max Temperature 62 °F 60 °F 71 °F (2016)
Min Temperature 44 °F 42 °F 32 °F (1998)
Degree Days  
Heating Degree Days 12    
Growing Degree Days 3 (Base 50)    
Moisture  
Dew Point 49 °F    
Average Humidity 89    
Maximum Humidity 100    
Minimum Humidity 68    
Precipitation  
Precipitation 0.00 in - - ()
Sea Level Pressure  
Sea Level Pressure 29.85 in    
Wind  
Wind Speed 5 mph ()    
Max Wind Speed 17 mph    
Max Gust Speed -    
Visibility 5.1 miles    
Events Fog , Rain    
Averages and records for this station are not official NWS values.
T = Trace of Precipitation, MM = Missing Value Source: Averaged Metar Reports

Daily Weather History Graph

Daily Weather History Graph

Search for Another Location

Airport or City:

Trip Planner

Search our weather history database for the weather conditions in past years. The results will help you decide how hot, cold, wet, or windy it might be!

Date:

Astronomy

Apr. 16, 2013 Rise Set
Actual Time 7:03 AM NZST 5:55 PM NZST
Civil Twilight 6:34 AM NZST 6:24 PM NZST
Nautical Twilight 6:01 AM NZST 6:57 PM NZST
Astronomical Twilight 5:28 AM NZST 7:30 PM NZST
Moon 12:07 PM NZST (4/16) 9:45 PM NZST (4/16)
Length of Visible Light 11h 49m
Length of Day
10h 51m
Waxing Crescent, 27% of the Moon is Illuminated
Apr 16
Waxing Crescent
Apr 19
First Quarter
Apr 26
Full
May 2
Last Quarter
May 10
New

Hourly Weather History & Observations

Time (NZST) Temp. Windchill Dew Point Humidity Pressure Visibility Wind Dir Wind Speed Gust Speed Precip Events Conditions
12:00 AM 50.0 °F - 46.4 °F 87% 29.83 in - NNE 4.6 mph - N/A   Clear
1:00 AM 51.8 °F - 48.2 °F 88% 29.83 in - WNW 3.5 mph - N/A   Clear
2:00 AM 48.2 °F - 46.4 °F 93% 29.83 in - WNW 2.3 mph - N/A   Clear
3:00 AM 48.2 °F - 46.4 °F 93% 29.83 in - NW 2.3 mph - N/A   Clear
4:00 AM 44.6 °F 43.1 °F 42.8 °F 93% 29.80 in 6.2 mi SSW 3.5 mph - N/A Fog Patches of Fog
4:15 AM 46.4 °F 45.2 °F 44.6 °F 93% 29.80 in 6.2 mi West 3.5 mph - N/A   Mostly Cloudy
5:00 AM 46.4 °F 44.3 °F 46.4 °F 100% 29.83 in 0.9 mi NW 4.6 mph - N/A   Mostly Cloudy
5:35 AM 46.4 °F - 44.6 °F 93% 29.83 in 0.9 mi WSW 1.2 mph - N/A Fog Fog
6:00 AM 44.6 °F - 44.6 °F 100% 29.83 in 0.9 mi WSW 2.3 mph - N/A   Unknown
6:10 AM 44.6 °F 43.1 °F 42.8 °F 93% 29.83 in 6.2 mi WSW 3.5 mph - N/A Fog Partly Cloudy
7:00 AM 44.6 °F - 42.8 °F 93% 29.83 in 6.2 mi West 2.3 mph - N/A Fog Shallow Fog
8:00 AM 44.6 °F - 42.8 °F 93% 29.83 in - West 1.2 mph - N/A   Clear
9:00 AM 48.2 °F - 48.2 °F 100% 29.86 in - West 2.3 mph - N/A   Clear
10:00 AM 55.4 °F - 51.8 °F 88% 29.89 in - WNW 2.3 mph - N/A   Clear
11:00 AM 60.8 °F - 50.0 °F 68% 29.89 in - SW 6.9 mph - N/A   Clear
12:00 PM 62.6 °F - 53.6 °F 72% 29.86 in - SW 11.5 mph - N/A   Clear
1:00 PM 62.6 °F - 53.6 °F 72% 29.86 in 6.2 mi SW 15.0 mph - N/A   Scattered Clouds
2:00 PM 60.8 °F - 53.6 °F 77% 29.86 in 6.2 mi SW 17.3 mph - N/A   Mostly Cloudy
3:00 PM 59.0 °F - 51.8 °F 77% 29.86 in 6.2 mi SW 16.1 mph - N/A   Mostly Cloudy
4:00 PM 57.2 °F - 53.6 °F 88% 29.86 in 6.2 mi SSW 13.8 mph - N/A   Mostly Cloudy
5:00 PM 57.2 °F - 51.8 °F 82% 29.86 in 6.2 mi SW 12.7 mph - N/A   Mostly Cloudy
6:00 PM 55.4 °F - 51.8 °F 88% 29.89 in 6.2 mi SW 11.5 mph - N/A Rain Light Rain
7:00 PM 53.6 °F - 51.8 °F 94% 29.89 in 6.2 mi SW 9.2 mph - N/A Rain Rain
8:00 PM 53.6 °F - 51.8 °F 94% 29.89 in 6.2 mi SW 8.1 mph - N/A Rain Rain
9:00 PM 53.6 °F - 51.8 °F 94% 29.89 in 5.0 mi SW 10.4 mph - N/A Rain Rain
10:00 PM 53.6 °F - 51.8 °F 94% 29.86 in 5.0 mi WSW 12.7 mph - N/A Rain Rain
11:00 PM 53.6 °F - 51.8 °F 94% 29.86 in 5.0 mi SW 10.4 mph - N/A Rain Rain